Time,TemperatureF,DewpointF,PressureIn,WindDirection,WindDirectionDegrees,WindSpeedMPH,WindSpeedGustMPH,Humidity,HourlyPrecipIn,Conditions,Clouds,dailyrainin,SoftwareType,DateUTC
2013-06-24 00:01:00,78.7,72.4,30.11,NE,45,1.1,2.0,81,0.00,,,0.00,WUHU216HW,2013-06-24 04:01:00,
2013-06-24 00:02:00,78.7,72.4,30.11,North,0,1.8,2.0,81,0.00,,,0.00,WUHU216HW,2013-06-24 04:02:00,
2013-06-24 00:07:00,78.5,72.2,30.11,East,90,1.8,2.0,81,0.00,,,0.00,WUHU216HW,2013-06-24 04:07:00,
2013-06-24 00:12:00,78.3,72.0,30.11,East,90,0.7,2.0,81,0.00,,,0.00,WUHU216HW,2013-06-24 04:12:00,
2013-06-24 00:17:00,78.3,72.0,30.10,East,90,0.4,2.0,81,0.00,,,0.00,WUHU216HW,2013-06-24 04:17:00,
2013-06-24 00:23:00,78.1,71.8,30.10,ENE,68,0.7,2.2,81,0.00,,,0.00,WUHU216HW,2013-06-24 04:23:00,
2013-06-24 00:28:00,78.1,71.8,30.10,East,90,1.3,2.2,81,0.00,,,0.00,WUHU216HW,2013-06-24 04:28:00,
2013-06-24 00:33:00,77.9,71.6,30.10,East,90,0.4,1.8,81,0.00,,,0.00,WUHU216HW,2013-06-24 04:33:00,
2013-06-24 00:38:00,77.8,71.8,30.10,NE,45,1.6,2.7,82,0.00,,,0.00,WUHU216HW,2013-06-24 04:38:00,
2013-06-24 00:43:00,77.6,71.6,30.10,ESE,113,1.1,2.7,82,0.00,,,0.00,WUHU216HW,2013-06-24 04:43:00,
2013-06-24 00:48:00,77.8,71.8,30.09,NNE,23,0.4,1.1,82,0.00,,,0.00,WUHU216HW,2013-06-24 04:48:00,
2013-06-24 00:53:00,77.8,71.8,30.09,NNE,23,0.7,1.1,82,0.00,,,0.00,WUHU216HW,2013-06-24 04:53:00,
2013-06-24 00:58:00,77.8,71.8,30.09,East,90,0.4,0.9,82,0.00,,,0.00,WUHU216HW,2013-06-24 04:58:00,
2013-06-24 01:03:00,77.8,71.8,30.09,ENE,68,0.4,1.1,82,0.00,,,0.00,WUHU216HW,2013-06-24 05:03:00,
2013-06-24 01:08:00,77.8,71.8,30.10,ESE,113,0.7,2.5,82,0.00,,,0.00,WUHU216HW,2013-06-24 05:08:00,
2013-06-24 01:13:00,77.6,71.6,30.10,ENE,68,1.1,2.5,82,0.00,,,0.00,WUHU216HW,2013-06-24 05:13:00,
2013-06-24 01:18:00,77.6,71.6,30.10,ENE,68,0.2,1.6,82,0.00,,,0.00,WUHU216HW,2013-06-24 05:18:00,
2013-06-24 01:19:00,77.6,71.6,30.10,ENE,68,0.2,1.6,82,0.00,,,0.00,WUHU216HW,2013-06-24 05:19:00,
2013-06-24 01:24:00,77.4,71.5,30.09,ENE,68,0.4,1.8,82,0.00,,,0.00,WUHU216HW,2013-06-24 05:24:00,
2013-06-24 01:30:00,77.4,71.5,30.09,NE,45,1.8,2.2,82,0.00,,,0.00,WUHU216HW,2013-06-24 05:30:00,
2013-06-24 01:35:00,77.2,71.3,30.09,NNE,23,0.7,2.2,82,0.00,,,0.00,WUHU216HW,2013-06-24 05:35:00,
2013-06-24 01:40:00,77.2,71.3,30.09,NNE,23,1.1,1.8,82,0.00,,,0.00,WUHU216HW,2013-06-24 05:40:00,
2013-06-24 01:45:00,77.0,71.5,30.09,NNE,23,1.3,1.8,83,0.00,,,0.00,WUHU216HW,2013-06-24 05:45:00,
2013-06-24 01:51:00,77.0,71.5,30.09,NNE,23,1.3,1.6,83,0.00,,,0.00,WUHU216HW,2013-06-24 05:51:00,
2013-06-24 01:56:00,77.0,71.5,30.08,NE,45,0.9,2.7,83,0.00,,,0.00,WUHU216HW,2013-06-24 05:56:00,
2013-06-24 02:01:00,76.9,71.3,30.08,NNE,23,1.8,2.7,83,0.00,,,0.00,WUHU216HW,2013-06-24 06:01:00,
2013-06-24 02:06:00,76.9,71.3,30.08,NE,45,1.8,2.0,83,0.00,,,0.00,WUHU216HW,2013-06-24 06:06:00,
2013-06-24 02:12:00,76.9,71.6,30.08,ENE,68,1.8,1.8,84,0.00,,,0.00,WUHU216HW,2013-06-24 06:12:00,
2013-06-24 02:17:00,76.9,71.6,30.08,NE,45,0.4,2.5,84,0.00,,,0.00,WUHU216HW,2013-06-24 06:17:00,
2013-06-24 02:22:00,76.9,71.6,30.08,ESE,113,1.3,2.2,84,0.00,,,0.00,WUHU216HW,2013-06-24 06:22:00,
2013-06-24 02:27:00,76.9,71.6,30.08,ESE,113,1.1,2.2,84,0.00,,,0.00,WUHU216HW,2013-06-24 06:27:00,
2013-06-24 02:32:00,76.9,71.6,30.08,ESE,113,1.1,1.1,84,0.00,,,0.00,WUHU216HW,2013-06-24 06:32:00,
2013-06-24 02:37:00,77.0,71.8,30.07,ESE,113,0.4,1.1,84,0.00,,,0.00,WUHU216HW,2013-06-24 06:37:00,
2013-06-24 02:42:00,77.0,71.8,30.08,ESE,113,0.0,0.7,84,0.00,,,0.00,WUHU216HW,2013-06-24 06:42:00,
2013-06-24 02:47:00,77.2,72.0,30.08,East,90,0.0,1.1,84,0.00,,,0.00,WUHU216HW,2013-06-24 06:47:00,
2013-06-24 02:53:00,77.0,71.8,30.07,ESE,113,0.4,1.1,84,0.00,,,0.00,WUHU216HW,2013-06-24 06:53:00,
2013-06-24 02:57:00,77.0,71.8,30.08,ESE,113,0.4,2.2,84,0.00,,,0.00,WUHU216HW,2013-06-24 06:57:00,
2013-06-24 03:03:00,77.0,71.8,30.08,East,90,0.4,2.2,84,0.00,,,0.00,WUHU216HW,2013-06-24 07:03:00,
2013-06-24 03:08:00,77.0,71.8,30.07,ESE,113,0.7,1.8,84,0.00,,,0.00,WUHU216HW,2013-06-24 07:08:00,
2013-06-24 03:13:00,77.0,71.8,30.07,East,90,0.4,1.8,84,0.00,,,0.00,WUHU216HW,2013-06-24 07:13:00,
2013-06-24 03:18:00,77.0,71.8,30.07,NE,45,0.9,1.1,84,0.00,,,0.00,WUHU216HW,2013-06-24 07:18:00,
2013-06-24 03:23:00,77.0,71.8,30.07,NE,45,1.1,1.1,84,0.00,,,0.00,WUHU216HW,2013-06-24 07:23:00,
2013-06-24 03:28:00,76.9,72.0,30.07,NNE,23,0.4,1.1,85,0.00,,,0.00,WUHU216HW,2013-06-24 07:28:00,
2013-06-24 03:33:00,76.9,72.0,30.07,NE,45,1.1,1.3,85,0.00,,,0.00,WUHU216HW,2013-06-24 07:33:00,
2013-06-24 03:38:00,76.9,72.0,30.07,NE,45,0.2,1.3,85,0.00,,,0.00,WUHU216HW,2013-06-24 07:38:00,
2013-06-24 03:43:00,76.7,71.8,30.07,North,0,0.9,1.6,85,0.00,,,0.00,WUHU216HW,2013-06-24 07:43:00,
2013-06-24 03:48:00,76.7,71.8,30.08,NE,45,0.2,1.6,85,0.00,,,0.00,WUHU216HW,2013-06-24 07:48:00,
2013-06-24 03:54:00,76.7,71.8,30.07,ENE,68,0.9,1.3,85,0.00,,,0.00,WUHU216HW,2013-06-24 07:54:00,
2013-06-24 03:59:00,76.7,71.8,30.07,East,90,0.0,0.9,85,0.00,,,0.00,WUHU216HW,2013-06-24 07:59:00,
2013-06-24 04:04:00,76.7,71.8,30.07,ENE,68,0.0,0.7,85,0.00,,,0.00,WUHU216HW,2013-06-24 08:04:00,
2013-06-24 04:09:00,76.7,71.8,30.07,NNW,338,0.0,0.0,85,0.00,,,0.00,WUHU216HW,2013-06-24 08:09:00,
2013-06-24 04:14:00,76.5,71.6,30.07,ESE,113,0.0,0.0,85,0.00,,,0.00,WUHU216HW,2013-06-24 08:14:00,
2013-06-24 04:20:00,76.3,71.5,30.07,North,0,0.0,0.0,85,0.00,,,0.00,WUHU216HW,2013-06-24 08:20:00,
2013-06-24 04:25:00,76.1,71.3,30.07,NE,45,0.0,0.0,85,0.00,,,0.00,WUHU216HW,2013-06-24 08:25:00,
2013-06-24 04:30:00,76.1,71.3,30.07,ESE,113,1.6,1.6,85,0.00,,,0.00,WUHU216HW,2013-06-24 08:30:00,
2013-06-24 04:35:00,76.1,71.3,30.07,NNE,23,1.6,1.8,85,0.00,,,0.00,WUHU216HW,2013-06-24 08:35:00,
2013-06-24 04:40:00,76.3,71.5,30.07,NNE,23,1.1,1.8,85,0.00,,,0.00,WUHU216HW,2013-06-24 08:40:00,
2013-06-24 04:45:00,76.3,71.5,30.07,ENE,68,1.1,1.1,85,0.00,,,0.00,WUHU216HW,2013-06-24 08:45:00,
2013-06-24 04:51:00,76.3,71.5,30.07,ESE,113,0.9,1.1,85,0.00,,,0.00,WUHU216HW,2013-06-24 08:51:00,
2013-06-24 04:56:00,76.3,71.5,30.07,ESE,113,0.9,1.1,85,0.00,,,0.00,WUHU216HW,2013-06-24 08:56:00,
2013-06-24 05:01:00,76.5,71.6,30.07,ESE,113,0.4,2.2,85,0.00,,,0.00,WUHU216HW,2013-06-24 09:01:00,
2013-06-24 05:06:00,76.5,71.6,30.07,ENE,68,0.4,2.2,85,0.00,,,0.00,WUHU216HW,2013-06-24 09:06:00,
2013-06-24 05:11:00,76.5,71.6,30.07,NNE,23,0.4,1.1,85,0.00,,,0.00,WUHU216HW,2013-06-24 09:11:00,
2013-06-24 05:16:00,76.3,71.5,30.07,East,90,0.7,1.8,85,0.00,,,0.00,WUHU216HW,2013-06-24 09:16:00,
2013-06-24 05:21:00,76.3,71.5,30.07,SE,135,1.1,2.9,85,0.00,,,0.00,WUHU216HW,2013-06-24 09:21:00,
2013-06-24 05:26:00,76.3,71.5,30.06,ENE,68,2.2,2.9,85,0.00,,,0.00,WUHU216HW,2013-06-24 09:26:00,
2013-06-24 05:31:00,76.3,71.5,30.07,SSE,158,0.9,2.5,85,0.00,,,0.00,WUHU216HW,2013-06-24 09:31:00,
2013-06-24 05:37:00,76.3,71.5,30.07,NNE,23,0.7,1.8,85,0.00,,,0.00,WUHU216HW,2013-06-24 09:37:00,
2013-06-24 05:42:00,76.3,71.5,30.07,ENE,68,0.4,1.8,85,0.00,,,0.00,WUHU216HW,2013-06-24 09:42:00,
2013-06-24 05:47:00,76.3,71.5,30.07,East,90,0.4,1.8,85,0.00,,,0.00,WUHU216HW,2013-06-24 09:47:00,
2013-06-24 05:52:00,76.1,71.3,30.08,NNW,338,0.4,1.6,85,0.00,,,0.00,WUHU216HW,2013-06-24 09:52:00,
2013-06-24 05:57:00,76.1,71.3,30.08,NNE,23,0.2,2.5,85,0.00,,,0.00,WUHU216HW,2013-06-24 09:57:00,
2013-06-24 06:03:00,76.1,71.6,30.08,NE,45,0.7,2.5,86,0.00,,,0.00,WUHU216HW,2013-06-24 10:03:00,
2013-06-24 06:08:00,76.0,71.5,30.08,NE,45,0.4,2.0,86,0.00,,,0.00,WUHU216HW,2013-06-24 10:08:00,
2013-06-24 06:13:00,76.0,71.5,30.09,NE,45,0.0,2.0,86,0.00,,,0.00,WUHU216HW,2013-06-24 10:13:00,
2013-06-24 06:18:00,76.0,71.5,30.09,NNE,23,0.0,1.6,86,0.00,,,0.00,WUHU216HW,2013-06-24 10:18:00,
2013-06-24 06:23:00,76.0,71.5,30.09,North,0,0.0,1.1,86,0.00,,,0.00,WUHU216HW,2013-06-24 10:23:00,
2013-06-24 06:28:00,76.0,71.5,30.09,NNE,23,0.0,0.0,86,0.00,,,0.00,WUHU216HW,2013-06-24 10:28:00,
2013-06-24 06:33:00,76.0,71.5,30.09,ENE,68,0.7,0.7,86,0.00,,,0.00,WUHU216HW,2013-06-24 10:33:00,
2013-06-24 06:38:00,76.0,71.5,30.08,NE,45,0.7,1.3,86,0.00,,,0.00,WUHU216HW,2013-06-24 10:38:00,
2013-06-24 06:44:00,75.8,71.4,30.09,NE,45,1.6,2.2,86,0.00,,,0.00,WUHU216HW,2013-06-24 10:44:00,
2013-06-24 06:49:00,75.6,71.2,30.09,SE,135,1.1,2.2,86,0.00,,,0.00,WUHU216HW,2013-06-24 10:49:00,
2013-06-24 06:54:00,75.8,71.4,30.09,ESE,113,1.1,1.6,86,0.00,,,0.00,WUHU216HW,2013-06-24 10:54:00,
2013-06-24 06:59:00,76.0,71.5,30.09,NNE,23,1.6,1.6,86,0.00,,,0.00,WUHU216HW,2013-06-24 10:59:00,
2013-06-24 07:04:00,76.0,71.5,30.09,ESE,113,0.4,1.6,86,0.00,,,0.00,WUHU216HW,2013-06-24 11:04:00,
2013-06-24 07:10:00,76.0,71.5,30.09,ESE,113,2.0,2.0,86,0.00,,,0.00,WUHU216HW,2013-06-24 11:10:00,
2013-06-24 07:15:00,76.0,71.5,30.09,ENE,68,0.4,2.0,86,0.00,,,0.00,WUHU216HW,2013-06-24 11:15:00,
2013-06-24 07:20:00,76.1,71.6,30.09,ENE,68,0.4,2.0,86,0.00,,,0.00,WUHU216HW,2013-06-24 11:20:00,
2013-06-24 07:25:00,76.1,71.6,30.09,NNE,23,0.4,2.2,86,0.00,,,0.00,WUHU216HW,2013-06-24 11:25:00,
2013-06-24 07:30:00,76.1,71.6,30.10,ENE,68,1.1,2.2,86,0.00,,,0.00,WUHU216HW,2013-06-24 11:30:00,
2013-06-24 07:35:00,76.3,71.8,30.09,SE,135,0.4,1.1,86,0.00,,,0.00,WUHU216HW,2013-06-24 11:35:00,
2013-06-24 07:40:00,76.3,71.8,30.09,ESE,113,0.7,2.5,86,0.00,,,0.00,WUHU216HW,2013-06-24 11:40:00,
2013-06-24 07:45:00,76.3,71.8,30.09,ESE,113,0.4,2.5,86,0.00,,,0.00,WUHU216HW,2013-06-24 11:45:00,
2013-06-24 07:50:00,76.5,72.0,30.09,East,90,2.9,2.9,86,0.00,,,0.00,WUHU216HW,2013-06-24 11:50:00,
2013-06-24 07:56:00,76.7,72.2,30.10,ESE,113,1.3,2.9,86,0.00,,,0.00,WUHU216HW,2013-06-24 11:56:00,
2013-06-24 08:01:00,76.7,72.2,30.10,ESE,113,1.1,2.9,86,0.00,,,0.00,WUHU216HW,2013-06-24 12:01:00,
2013-06-24 08:06:00,76.9,72.0,30.10,ESE,113,1.1,3.4,85,0.00,,,0.00,WUHU216HW,2013-06-24 12:06:00,
2013-06-24 08:11:00,77.0,72.2,30.10,ENE,68,0.9,3.4,85,0.00,,,0.00,WUHU216HW,2013-06-24 12:11:00,
2013-06-24 08:16:00,77.0,72.2,30.10,ESE,113,3.4,3.4,85,0.00,,,0.00,WUHU216HW,2013-06-24 12:16:00,
2013-06-24 08:21:00,77.2,72.4,30.10,SE,135,2.5,3.4,85,0.00,,,0.00,WUHU216HW,2013-06-24 12:21:00,
2013-06-24 08:26:00,77.4,72.5,30.10,ESE,113,2.9,3.8,85,0.00,,,0.00,WUHU216HW,2013-06-24 12:26:00,
2013-06-24 08:32:00,77.6,72.7,30.10,ENE,68,1.6,3.4,85,0.00,,,0.00,WUHU216HW,2013-06-24 12:32:00,
2013-06-24 08:37:00,77.8,72.5,30.10,East,90,3.1,3.4,84,0.00,,,0.00,WUHU216HW,2013-06-24 12:37:00,
2013-06-24 08:42:00,77.9,72.7,30.10,SE,135,2.9,4.0,84,0.00,,,0.00,WUHU216HW,2013-06-24 12:42:00,
2013-06-24 08:47:00,78.3,73.1,30.11,SE,135,1.1,4.0,84,0.00,,,0.00,WUHU216HW,2013-06-24 12:47:00,
2013-06-24 08:52:00,78.5,73.3,30.11,ENE,68,3.1,3.4,84,0.00,,,0.00,WUHU216HW,2013-06-24 12:52:00,
2013-06-24 08:57:00,79.0,73.5,30.11,SSE,158,1.8,3.1,83,0.00,,,0.00,WUHU216HW,2013-06-24 12:57:00,
2013-06-24 09:03:00,79.2,73.6,30.12,NE,45,2.0,2.9,83,0.00,,,0.00,WUHU216HW,2013-06-24 13:03:00,
2013-06-24 09:08:00,79.6,73.6,30.12,East,90,3.8,3.8,82,0.00,,,0.00,WUHU216HW,2013-06-24 13:08:00,
2013-06-24 09:13:00,79.9,74.0,30.12,ESE,113,2.2,4.3,82,0.00,,,0.00,WUHU216HW,2013-06-24 13:13:00,
2013-06-24 09:18:00,80.3,74.0,30.12,NE,45,2.2,4.3,81,0.00,,,0.00,WUHU216HW,2013-06-24 13:18:00,
2013-06-24 09:23:00,80.6,74.4,30.12,ESE,113,2.0,3.4,81,0.00,,,0.00,WUHU216HW,2013-06-24 13:23:00,
2013-06-24 09:28:00,81.2,74.9,30.12,NE,45,0.4,2.9,81,0.00,,,0.00,WUHU216HW,2013-06-24 13:28:00,
2013-06-24 09:33:00,81.5,75.6,30.11,ENE,68,1.8,3.4,82,0.00,,,0.00,WUHU216HW,2013-06-24 13:33:00,
2013-06-24 09:39:00,81.7,75.4,30.11,ENE,68,1.8,3.4,81,0.00,,,0.00,WUHU216HW,2013-06-24 13:39:00,
2013-06-24 09:44:00,82.3,76.0,30.12,ESE,113,1.6,3.4,81,0.00,,,0.00,WUHU216HW,2013-06-24 13:44:00,
2013-06-24 09:49:00,82.8,76.2,30.12,ESE,113,3.8,4.7,80,0.00,,,0.00,WUHU216HW,2013-06-24 13:49:00,
2013-06-24 09:54:00,83.2,76.1,30.12,ESE,113,2.0,4.7,79,0.00,,,0.00,WUHU216HW,2013-06-24 13:54:00,
2013-06-24 10:00:00,83.3,76.2,30.12,SE,135,4.0,4.0,79,0.00,,,0.00,WUHU216HW,2013-06-24 14:00:00,
2013-06-24 10:05:00,83.7,76.5,30.12,SSE,158,4.5,5.8,79,0.00,,,0.00,WUHU216HW,2013-06-24 14:05:00,
2013-06-24 10:10:00,84.1,76.4,30.12,ESE,113,5.1,5.8,78,0.00,,,0.00,WUHU216HW,2013-06-24 14:10:00,
2013-06-24 10:12:00,84.6,76.6,30.13,ESE,113,2.5,2.5,77,0.00,,,0.00,WUHU216HW,2013-06-24 14:12:00,
2013-06-24 10:15:00,84.6,76.6,30.13,ESE,113,2.5,5.6,77,0.00,,,0.00,WUHU216HW,2013-06-24 14:15:00,
2013-06-24 10:20:00,84.6,76.6,30.13,ESE,113,2.5,5.6,77,0.00,,,0.00,WUHU216HW,2013-06-24 14:20:00,
2013-06-24 10:43:00,85.7,76.5,30.13,East,90,2.5,2.5,74,0.00,,,0.00,WUHU216HW,2013-06-24 14:43:00,
2013-06-24 10:45:00,85.7,76.5,30.13,East,90,2.5,2.5,74,0.00,,,0.00,WUHU216HW,2013-06-24 14:45:00,
2013-06-24 10:50:00,85.7,76.5,30.13,East,90,2.5,2.5,74,0.00,,,0.00,WUHU216HW,2013-06-24 14:50:00,
2013-06-24 11:30:00,87.5,77.0,30.13,East,90,5.1,5.1,71,0.00,,,0.00,WUHU216HW,2013-06-24 15:30:00,
2013-06-24 11:31:00,87.5,77.0,30.13,East,90,5.1,5.1,71,0.00,,,0.00,WUHU216HW,2013-06-24 15:31:00,
2013-06-24 11:36:00,87.5,77.0,30.13,East,90,5.1,5.1,71,0.00,,,0.00,WUHU216HW,2013-06-24 15:36:00,
2013-06-24 12:00:00,88.9,77.5,30.13,SSE,158,1.1,1.1,69,0.00,,,0.00,WUHU216HW,2013-06-24 16:00:00,
2013-06-24 12:05:00,89.3,77.0,30.13,SE,135,1.1,3.4,67,0.00,,,0.00,WUHU216HW,2013-06-24 16:05:00,
2013-06-24 12:10:00,89.3,77.0,30.13,SSE,158,2.5,5.1,67,0.00,,,0.00,WUHU216HW,2013-06-24 16:10:00,
2013-06-24 12:16:00,89.1,76.8,30.12,SSE,158,2.7,5.1,67,0.00,,,0.00,WUHU216HW,2013-06-24 16:16:00,
2013-06-24 12:21:00,89.3,77.0,30.12,SSE,158,4.0,4.0,67,0.00,,,0.00,WUHU216HW,2013-06-24 16:21:00,
2013-06-24 12:26:00,89.6,76.8,30.12,ESE,113,2.7,4.0,66,0.00,,,0.00,WUHU216HW,2013-06-24 16:26:00,
2013-06-24 12:31:00,90.0,76.7,30.12,SE,135,1.8,4.7,65,0.00,,,0.00,WUHU216HW,2013-06-24 16:31:00,
2013-06-24 12:37:00,89.5,76.6,30.12,ENE,68,0.4,3.4,66,0.00,,,0.00,WUHU216HW,2013-06-24 16:37:00,
2013-06-24 12:42:00,89.3,75.5,30.12,NE,45,3.8,3.8,64,0.00,,,0.00,WUHU216HW,2013-06-24 16:42:00,
2013-06-24 12:47:00,90.0,77.1,30.12,SE,135,1.1,3.8,66,0.00,,,0.00,WUHU216HW,2013-06-24 16:47:00,
2013-06-24 12:53:00,90.4,76.5,30.12,ESE,113,2.7,4.9,64,0.00,,,0.00,WUHU216HW,2013-06-24 16:53:00,
2013-06-24 12:58:00,90.7,77.8,30.12,SE,135,1.1,4.9,66,0.00,,,0.00,WUHU216HW,2013-06-24 16:58:00,
2013-06-24 13:03:00,91.4,77.9,30.11,ESE,113,2.9,4.5,65,0.00,,,0.00,WUHU216HW,2013-06-24 17:03:00,
2013-06-24 13:08:00,91.8,77.4,30.11,NE,45,2.0,4.5,63,0.00,,,0.00,WUHU216HW,2013-06-24 17:08:00,
2013-06-24 13:14:00,92.2,77.2,30.11,SE,135,2.7,4.0,62,0.00,,,0.00,WUHU216HW,2013-06-24 17:14:00,
2013-06-24 13:19:00,92.3,77.4,30.11,SE,135,1.8,4.0,62,0.00,,,0.00,WUHU216HW,2013-06-24 17:19:00,
2013-06-24 13:24:00,92.5,77.1,30.11,ENE,68,2.7,5.4,61,0.00,,,0.00,WUHU216HW,2013-06-24 17:24:00,
2013-06-24 13:29:00,92.2,76.8,30.11,ESE,113,1.6,5.4,61,0.00,,,0.00,WUHU216HW,2013-06-24 17:29:00,
2013-06-24 13:34:00,91.6,75.8,30.10,SE,135,1.8,2.7,60,0.00,,,0.00,WUHU216HW,2013-06-24 17:34:00,
2013-06-24 13:39:00,91.3,75.4,30.10,West,270,1.3,1.8,60,0.00,,,0.00,WUHU216HW,2013-06-24 17:39:00,
2013-06-24 13:44:00,92.2,75.8,30.10,South,180,2.2,3.6,59,0.00,,,0.00,WUHU216HW,2013-06-24 17:44:00,
2013-06-24 13:49:00,92.5,75.1,30.09,ESE,113,2.5,3.6,57,0.00,,,0.00,WUHU216HW,2013-06-24 17:49:00,
2013-06-24 13:54:00,93.2,76.3,30.09,SE,135,2.7,2.7,58,0.00,,,0.00,WUHU216HW,2013-06-24 17:54:00,
2013-06-24 13:59:00,93.2,76.3,30.09,ESE,113,3.4,3.4,58,0.00,,,0.00,WUHU216HW,2013-06-24 17:59:00,
2013-06-24 14:04:00,93.1,76.2,30.09,ESE,113,0.4,6.7,58,0.00,,,0.00,WUHU216HW,2013-06-24 18:04:00,
2013-06-24 14:10:00,93.1,75.5,30.09,West,270,0.9,6.7,57,0.00,,,0.00,WUHU216HW,2013-06-24 18:10:00,
2013-06-24 14:15:00,92.7,76.9,30.09,WNW,293,3.4,5.4,60,0.00,,,0.00,WUHU216HW,2013-06-24 18:15:00,
2013-06-24 14:20:00,92.2,77.2,30.09,SW,225,1.6,5.4,62,0.00,,,0.00,WUHU216HW,2013-06-24 18:20:00,
2013-06-24 14:25:00,92.0,78.0,30.09,WSW,248,1.1,2.5,64,0.00,,,0.00,WUHU216HW,2013-06-24 18:25:00,
2013-06-24 14:30:00,91.6,77.7,30.09,SSE,158,1.8,2.5,64,0.00,,,0.00,WUHU216HW,2013-06-24 18:30:00,
2013-06-24 14:35:00,91.1,77.1,30.08,West,270,2.5,3.4,64,0.00,,,0.00,WUHU216HW,2013-06-24 18:35:00,
2013-06-24 14:40:00,90.9,77.5,30.08,WSW,248,0.0,3.4,65,0.00,,,0.00,WUHU216HW,2013-06-24 18:40:00,
2013-06-24 14:46:00,90.9,77.5,30.08,West,270,1.6,2.9,65,0.00,,,0.00,WUHU216HW,2013-06-24 18:46:00,
2013-06-24 14:51:00,90.7,77.3,30.07,West,270,2.5,2.9,65,0.00,,,0.00,WUHU216HW,2013-06-24 18:51:00,
2013-06-24 14:56:00,90.9,78.0,30.07,NNW,338,0.7,4.0,66,0.00,,,0.00,WUHU216HW,2013-06-24 18:56:00,
2013-06-24 15:01:00,91.4,77.9,30.07,NW,315,0.9,4.0,65,0.00,,,0.00,WUHU216HW,2013-06-24 19:01:00,
2013-06-24 15:06:00,91.6,78.6,30.07,SW,225,0.7,2.0,66,0.00,,,0.00,WUHU216HW,2013-06-24 19:06:00,
2013-06-24 15:11:00,92.0,78.5,30.07,NW,315,1.6,3.1,65,0.00,,,0.00,WUHU216HW,2013-06-24 19:11:00,
2013-06-24 15:17:00,92.0,78.0,30.07,West,270,1.8,4.0,64,0.00,,,0.00,WUHU216HW,2013-06-24 19:17:00,
2013-06-24 15:22:00,91.8,77.9,30.07,NW,315,4.3,6.5,64,0.00,,,0.00,WUHU216HW,2013-06-24 19:22:00,
2013-06-24 15:27:00,91.3,77.3,30.07,NW,315,4.7,6.5,64,0.00,,,0.00,WUHU216HW,2013-06-24 19:27:00,
2013-06-24 15:32:00,90.9,77.5,30.06,WNW,293,1.6,5.6,65,0.00,,,0.00,WUHU216HW,2013-06-24 19:32:00,
2013-06-24 15:37:00,90.5,77.1,30.06,North,0,0.9,3.1,65,0.00,,,0.00,WUHU216HW,2013-06-24 19:37:00,
2013-06-24 15:42:00,90.2,77.3,30.06,SW,225,1.1,4.5,66,0.00,,,0.00,WUHU216HW,2013-06-24 19:42:00,
2013-06-24 15:48:00,90.4,77.4,30.05,SSW,203,3.4,4.5,66,0.00,,,0.00,WUHU216HW,2013-06-24 19:48:00,
2013-06-24 15:53:00,90.4,77.4,30.05,NNW,338,5.8,5.8,66,0.00,,,0.00,WUHU216HW,2013-06-24 19:53:00,
2013-06-24 15:58:00,90.4,77.4,30.05,NW,315,1.1,5.8,66,0.00,,,0.00,WUHU216HW,2013-06-24 19:58:00,
2013-06-24 16:03:00,90.2,78.2,30.05,WSW,248,2.0,4.5,68,0.05,,,0.03,WUHU216HW,2013-06-24 20:03:00,
2013-06-24 16:08:00,89.6,78.7,30.06,South,180,1.3,2.0,70,0.08,,,0.08,WUHU216HW,2013-06-24 20:08:00,
2013-06-24 16:13:00,88.6,78.0,30.07,SSW,203,2.5,8.1,71,0.11,,,0.10,WUHU216HW,2013-06-24 20:13:00,
2013-06-24 16:18:00,87.3,77.2,30.08,South,180,5.4,8.1,72,0.23,,,0.16,WUHU216HW,2013-06-24 20:18:00,
2013-06-24 16:23:00,85.5,76.3,30.07,SSE,158,2.5,5.6,74,0.48,,,0.46,WUHU216HW,2013-06-24 20:23:00,
2013-06-24 16:28:00,84.8,75.6,30.06,SE,135,0.9,5.6,74,0.58,,,0.58,WUHU216HW,2013-06-24 20:28:00,
2013-06-24 16:33:00,83.9,75.1,30.07,SSE,158,1.1,2.9,75,0.58,,,0.58,WUHU216HW,2013-06-24 20:33:00,
2013-06-24 16:38:00,83.2,74.4,30.07,NNW,338,1.8,1.8,75,0.58,,,0.58,WUHU216HW,2013-06-24 20:38:00,
2013-06-24 16:44:00,82.8,74.4,30.07,SW,225,0.4,1.8,76,0.58,,,0.58,WUHU216HW,2013-06-24 20:44:00,
2013-06-24 16:49:00,82.6,74.7,30.07,SW,225,0.0,1.1,77,0.59,,,0.59,WUHU216HW,2013-06-24 20:49:00,
2013-06-24 16:54:00,82.4,74.5,30.07,SW,225,0.2,1.1,77,0.59,,,0.59,WUHU216HW,2013-06-24 20:54:00,
2013-06-24 16:59:00,82.4,74.5,30.07,SSW,203,0.7,1.1,77,0.58,,,0.60,WUHU216HW,2013-06-24 20:59:00,
2013-06-24 17:04:00,82.1,74.2,30.07,SSW,203,0.4,0.7,77,0.55,,,0.62,WUHU216HW,2013-06-24 21:04:00,
2013-06-24 17:09:00,81.7,73.8,30.07,SW,225,1.3,1.3,77,0.52,,,0.63,WUHU216HW,2013-06-24 21:09:00,
2013-06-24 17:14:00,81.4,73.5,30.06,SSE,158,0.0,1.3,77,0.48,,,0.64,WUHU216HW,2013-06-24 21:14:00,
2013-06-24 17:19:00,81.0,73.5,30.06,WSW,248,0.0,0.9,78,0.24,,,0.64,WUHU216HW,2013-06-24 21:19:00,
2013-06-24 17:25:00,81.0,73.5,30.07,WSW,248,0.0,0.2,78,0.06,,,0.64,WUHU216HW,2013-06-24 21:25:00,
2013-06-24 17:30:00,80.8,73.8,30.07,SE,135,0.2,0.2,79,0.06,,,0.64,WUHU216HW,2013-06-24 21:30:00,
2013-06-24 17:35:00,81.0,74.0,30.06,SE,135,0.0,0.2,79,0.06,,,0.64,WUHU216HW,2013-06-24 21:35:00,
2013-06-24 17:40:00,81.0,74.0,30.06,SE,135,0.0,0.0,79,0.06,,,0.64,WUHU216HW,2013-06-24 21:40:00,
2013-06-24 18:01:00,81.0,74.7,30.04,SSE,158,0.0,0.0,81,0.02,,,0.64,WUHU216HW,2013-06-24 22:01:00,
2013-06-24 18:06:00,81.0,74.7,30.05,SSE,158,0.0,0.9,81,0.01,,,0.64,WUHU216HW,2013-06-24 22:06:00,
2013-06-24 18:11:00,81.0,74.7,30.05,SSE,158,0.0,0.9,81,0.00,,,0.64,WUHU216HW,2013-06-24 22:11:00,
2013-06-24 18:16:00,81.0,74.7,30.05,SSE,158,0.0,0.4,81,0.00,,,0.64,WUHU216HW,2013-06-24 22:16:00,
2013-06-24 18:23:00,81.0,74.7,30.05,SSE,158,0.0,0.4,81,0.00,,,0.64,WUHU216HW,2013-06-24 22:23:00,
2013-06-24 18:28:00,81.0,74.7,30.05,SSE,158,0.0,0.0,81,0.00,,,0.64,WUHU216HW,2013-06-24 22:28:00,
2013-06-24 18:33:00,80.8,74.5,30.05,SSE,158,0.0,0.4,81,0.00,,,0.64,WUHU216HW,2013-06-24 22:33:00,
2013-06-24 18:38:00,80.8,74.5,30.04,SSE,158,0.0,0.4,81,0.00,,,0.64,WUHU216HW,2013-06-24 22:38:00,
2013-06-24 18:44:00,80.8,74.5,30.05,SSE,158,0.0,0.4,81,0.00,,,0.64,WUHU216HW,2013-06-24 22:44:00,
2013-06-24 18:49:00,81.0,74.7,30.05,NW,315,0.4,0.4,81,0.00,,,0.64,WUHU216HW,2013-06-24 22:49:00,
2013-06-24 18:54:00,81.0,74.7,30.05,NW,315,0.0,0.4,81,0.00,,,0.64,WUHU216HW,2013-06-24 22:54:00,
2013-06-24 18:59:00,81.0,74.7,30.05,NW,315,0.0,0.4,81,0.00,,,0.64,WUHU216HW,2013-06-24 22:59:00,
2013-06-24 19:04:00,81.2,75.3,30.05,NNW,338,0.0,0.9,82,0.00,,,0.64,WUHU216HW,2013-06-24 23:04:00,
2013-06-24 19:09:00,81.2,75.3,30.05,NNW,338,0.2,0.9,82,0.00,,,0.64,WUHU216HW,2013-06-24 23:09:00,
2013-06-24 19:14:00,81.4,75.7,30.05,SE,135,0.2,1.1,83,0.00,,,0.64,WUHU216HW,2013-06-24 23:14:00,
2013-06-24 19:19:00,81.4,75.7,30.05,SE,135,1.8,1.8,83,0.00,,,0.64,WUHU216HW,2013-06-24 23:19:00,
2013-06-24 19:25:00,81.4,75.7,30.06,South,180,1.1,1.8,83,0.00,,,0.64,WUHU216HW,2013-06-24 23:25:00,
2013-06-24 19:30:00,81.4,75.7,30.06,SSE,158,0.4,1.1,83,0.00,,,0.64,WUHU216HW,2013-06-24 23:30:00,
2013-06-24 19:35:00,81.5,75.9,30.06,SSE,158,0.4,0.7,83,0.00,,,0.64,WUHU216HW,2013-06-24 23:35:00,
2013-06-24 19:40:00,81.4,75.7,30.06,SSE,158,0.0,0.7,83,0.00,,,0.64,WUHU216HW,2013-06-24 23:40:00,
2013-06-24 19:45:00,81.4,75.7,30.05,SSE,158,0.2,0.7,83,0.00,,,0.64,WUHU216HW,2013-06-24 23:45:00,
2013-06-24 19:50:00,81.4,75.7,30.05,SSE,158,0.7,1.1,83,0.00,,,0.64,WUHU216HW,2013-06-24 23:50:00,
2013-06-24 19:55:00,81.4,75.7,30.05,SSE,158,0.9,1.1,83,0.00,,,0.64,WUHU216HW,2013-06-24 23:55:00,
2013-06-24 20:00:00,81.4,75.7,30.05,SE,135,0.0,0.9,83,0.00,,,0.64,WUHU216HW,2013-06-25 00:00:00,
2013-06-24 20:05:00,81.4,75.7,30.05,SE,135,0.0,0.4,83,0.00,,,0.64,WUHU216HW,2013-06-25 00:05:00,
2013-06-24 20:11:00,81.2,75.3,30.05,SE,135,0.0,0.4,82,0.00,,,0.64,WUHU216HW,2013-06-25 00:11:00,
2013-06-24 20:16:00,81.0,75.1,30.05,SE,135,0.0,0.4,82,0.00,,,0.64,WUHU216HW,2013-06-25 00:16:00,
2013-06-24 20:21:00,81.0,75.1,30.05,SE,135,0.0,0.0,82,0.00,,,0.64,WUHU216HW,2013-06-25 00:21:00,
2013-06-24 20:26:00,80.8,74.9,30.06,SE,135,0.0,0.0,82,0.00,,,0.64,WUHU216HW,2013-06-25 00:26:00,
2013-06-24 20:31:00,81.0,75.3,30.06,SE,135,0.0,0.0,83,0.00,,,0.64,WUHU216HW,2013-06-25 00:31:00,
2013-06-24 20:37:00,80.8,75.2,30.06,SE,135,0.0,0.0,83,0.00,,,0.64,WUHU216HW,2013-06-25 00:37:00,
2013-06-24 20:42:00,80.8,75.2,30.06,SE,135,0.0,0.0,83,0.00,,,0.64,WUHU216HW,2013-06-25 00:42:00,
2013-06-24 20:47:00,80.8,75.2,30.05,SE,135,0.0,0.2,83,0.00,,,0.64,WUHU216HW,2013-06-25 00:47:00,
2013-06-24 20:52:00,80.6,75.0,30.05,North,0,0.0,0.7,83,0.00,,,0.64,WUHU216HW,2013-06-25 00:52:00,
2013-06-24 20:57:00,80.6,75.0,30.05,North,0,0.0,0.7,83,0.00,,,0.64,WUHU216HW,2013-06-25 00:57:00,
2013-06-24 21:02:00,80.5,74.8,30.05,North,0,0.0,0.0,83,0.00,,,0.64,WUHU216HW,2013-06-25 01:02:00,
2013-06-24 21:07:00,80.3,75.0,30.05,North,0,0.0,0.0,84,0.00,,,0.64,WUHU216HW,2013-06-25 01:07:00,
2013-06-24 21:12:00,80.3,75.0,30.06,North,0,0.4,0.4,84,0.00,,,0.64,WUHU216HW,2013-06-25 01:12:00,
2013-06-24 21:17:00,80.3,75.0,30.06,North,0,0.0,0.4,84,0.00,,,0.64,WUHU216HW,2013-06-25 01:17:00,
2013-06-24 21:21:00,80.3,75.0,30.06,NNE,23,0.2,0.2,84,0.00,,,0.64,WUHU216HW,2013-06-25 01:21:00,
2013-06-24 21:23:00,80.3,75.0,30.06,NNE,23,0.2,0.7,84,0.00,,,0.64,WUHU216HW,2013-06-25 01:23:00,
2013-06-24 21:28:00,80.3,75.0,30.06,NNE,23,0.2,0.7,84,0.00,,,0.64,WUHU216HW,2013-06-25 01:28:00,
2013-06-24 21:52:00,80.1,74.8,30.07,NE,45,0.0,0.0,84,0.00,,,0.64,WUHU216HW,2013-06-25 01:52:00,
2013-06-24 21:57:00,79.9,74.7,30.07,NE,45,0.0,0.0,84,0.00,,,0.64,WUHU216HW,2013-06-25 01:57:00,
2013-06-24 22:02:00,79.9,74.7,30.07,NE,45,0.0,0.0,84,0.00,,,0.64,WUHU216HW,2013-06-25 02:02:00,
2013-06-24 22:07:00,79.9,74.7,30.08,NE,45,0.0,0.0,84,0.00,,,0.64,WUHU216HW,2013-06-25 02:07:00,
2013-06-24 22:12:00,79.9,75.0,30.08,NNE,23,0.2,0.4,85,0.00,,,0.64,WUHU216HW,2013-06-25 02:12:00,
2013-06-24 22:17:00,79.9,75.0,30.08,NNE,23,0.0,0.4,85,0.00,,,0.64,WUHU216HW,2013-06-25 02:17:00,
2013-06-24 22:23:00,79.9,75.0,30.08,NNE,23,0.0,0.2,85,0.00,,,0.64,WUHU216HW,2013-06-25 02:23:00,
2013-06-24 22:28:00,79.9,75.0,30.08,NNE,23,0.0,0.0,85,0.00,,,0.64,WUHU216HW,2013-06-25 02:28:00,
2013-06-24 22:33:00,79.9,75.0,30.08,NNE,23,0.0,0.0,85,0.00,,,0.64,WUHU216HW,2013-06-25 02:33:00,
2013-06-24 22:38:00,79.9,75.0,30.08,NNE,23,0.7,0.7,85,0.00,,,0.64,WUHU216HW,2013-06-25 02:38:00,
2013-06-24 22:43:00,79.7,74.9,30.08,NNE,23,0.0,0.7,85,0.00,,,0.64,WUHU216HW,2013-06-25 02:43:00,
2013-06-24 22:48:00,79.7,74.9,30.09,NNE,23,0.0,0.4,85,0.00,,,0.64,WUHU216HW,2013-06-25 02:48:00,
2013-06-24 22:53:00,79.7,74.9,30.09,NNE,23,0.0,0.4,85,0.00,,,0.64,WUHU216HW,2013-06-25 02:53:00,
2013-06-24 22:59:00,79.6,74.7,30.09,NNE,23,0.0,0.0,85,0.00,,,0.64,WUHU216HW,2013-06-25 02:59:00,
2013-06-24 23:04:00,79.6,74.7,30.09,NNE,23,0.0,0.0,85,0.00,,,0.64,WUHU216HW,2013-06-25 03:04:00,
2013-06-24 23:09:00,79.6,74.7,30.09,NNE,23,0.0,0.0,85,0.00,,,0.64,WUHU216HW,2013-06-25 03:09:00,
2013-06-24 23:14:00,79.4,74.5,30.09,NNE,23,0.4,0.4,85,0.00,,,0.64,WUHU216HW,2013-06-25 03:14:00,
2013-06-24 23:19:00,79.4,74.5,30.09,NNE,23,0.0,0.4,85,0.00,,,0.64,WUHU216HW,2013-06-25 03:19:00,
2013-06-24 23:25:00,79.2,74.4,30.09,NNE,23,0.0,0.2,85,0.00,,,0.64,WUHU216HW,2013-06-25 03:25:00,
2013-06-24 23:30:00,79.2,74.4,30.10,NNE,23,0.0,0.0,85,0.00,,,0.64,WUHU216HW,2013-06-25 03:30:00,
2013-06-24 23:35:00,79.2,74.4,30.10,NNE,23,0.0,0.2,85,0.00,,,0.64,WUHU216HW,2013-06-25 03:35:00,
2013-06-24 23:40:00,79.0,74.2,30.10,NNE,23,0.0,0.2,85,0.00,,,0.64,WUHU216HW,2013-06-25 03:40:00,
2013-06-24 23:45:00,79.0,74.2,30.11,NNE,23,0.0,0.0,85,0.00,,,0.64,WUHU216HW,2013-06-25 03:45:00,
2013-06-24 23:50:00,79.0,74.2,30.11,NNE,23,0.0,0.0,85,0.00,,,0.64,WUHU216HW,2013-06-25 03:50:00,
2013-06-24 23:56:00,79.0,74.2,30.11,NNE,23,0.0,0.0,85,0.00,,,0.64,WUHU216HW,2013-06-25 03:56:00,